FW6587 Weather Reports


Display with metric or nautical units.
time (UTC)temp
F
wind
direction
speed
MPH
gust
MPH
rain 1hr
in
rain 24hr
in
rain mn
in
humidity
%
barometer
mb
20211204112546 34 341 0.0 2.0 0.00 0.00 0.00 71 1028.4
20211204112048 34 342 0.0 2.0 0.00 0.00 0.00 71 1028.4
20211204111644 33 340 1.0 2.0 0.00 0.00 0.00 72 1028.4
20211204111132 33 0 0.0 2.0 0.00 0.00 0.00 72 1028.5
20211204110551 32 0 0.0 2.0 0.00 0.00 0.00 72 1028.4
20211204110144 32 340 0.0 2.0 0.00 0.00 0.00 73 1028.3
20211204105554 31 340 0.0 2.0 0.00 0.00 0.00 73 1028.5
20211204105056 31 340 0.0 2.0 0.00 0.00 0.00 72 1028.4
20211204104708 31 0 0.0 2.0 0.00 0.00 0.00 72 1028.5
20211204104110 32 0 0.0 2.0 0.00 0.00 0.00 72 1028.4
20211204103604 31 0 0.0 2.0 0.00 0.00 0.00 71 1028.4
20211204103127 32 0 0.0 3.0 0.00 0.00 0.00 70 1028.6
20211204102546 31 340 1.0 3.0 0.00 0.00 0.00 71 1028.6
20211204102046 31 341 0.0 2.0 0.00 0.00 0.00 71 1028.6
20211204101622 31 342 0.0 3.0 0.00 0.00 0.00 71 1028.5
20211204101046 32 0 0.0 3.0 0.00 0.00 0.00 73 1028.5
20211204100546 32 0 0.0 0.0 0.00 0.00 0.00 72 1028.4
20211204100146 32 0 0.0 1.0 0.00 0.00 0.00 72 1028.5
20211204095546 32 0 0.0 1.0 0.00 0.00 0.00 72 1028.5
20211204095054 32 0 0.0 1.0 0.00 0.00 0.00 72 1028.5
20211204094706 33 0 0.0 0.0 0.00 0.00 0.00 71 1028.6
20211204094046 33 0 0.0 0.0 0.00 0.00 0.00 70 1028.5
20211204093558 33 0 0.0 0.0 0.00 0.00 0.00 69 1028.7
20211204093103 33 0 0.0 0.0 0.00 0.00 0.00 69 1028.7
20211204092604 34 0 0.0 0.0 0.00 0.00 0.00 69 1028.7
20211204092047 33 0 0.0 1.0 0.00 0.00 0.00 68 1028.7
20211204091559 32 0 0.0 1.0 0.00 0.00 0.00 67 1028.9
20211204091045 33 0 0.0 0.0 0.00 0.00 0.00 67 1028.9
20211204090553 33 0 0.0 0.0 0.00 0.00 0.00 66 1029.0
20211204090150 33 0 0.0 0.0 0.00 0.00 0.00 65 1029.0
20211204085547 33 0 0.0 0.0 0.00 0.00 0.00 65 1029.0
20211204085046 33 0 0.0 0.0 0.00 0.00 0.00 64 1029.0
20211204084722 33 0 0.0 0.0 0.00 0.00 0.00 65 1029.1
20211204084056 33 0 0.0 1.0 0.00 0.00 0.00 66 1029.2
20211204083545 34 0 0.0 1.0 0.00 0.00 0.00 65 1029.2
20211204083116 34 0 0.0 2.0 0.00 0.00 0.00 67 1029.2
20211204082545 34 0 0.0 2.0 0.00 0.00 0.00 68 1029.1
20211204082055 34 0 0.0 1.0 0.00 0.00 0.00 70 1029.2
20211204081621 34 0 0.0 2.0 0.00 0.00 0.00 70 1029.2
20211204081046 34 0 0.0 2.0 0.00 0.00 0.00 68 1029.3
20211204080554 34 324 0.0 1.0 0.00 0.00 0.00 62 1029.3
20211204080141 34 0 0.0 1.0 0.00 0.00 0.00 63 1029.3
20211204075544 34 0 0.0 0.0 0.00 0.00 0.00 63 1029.3
20211204075050 34 0 0.0 2.0 0.00 0.00 0.00 64 1029.4
20211204074656 34 0 0.0 2.0 0.00 0.00 0.00 64 1029.5
20211204074053 34 0 0.0 2.0 0.00 0.00 0.00 65 1029.5
20211204073550 35 0 0.0 0.0 0.00 0.00 0.00 65 1029.5
20211204073102 35 0 0.0 0.0 0.00 0.00 0.00 66 1029.6
20211204072548 36 0 0.0 1.0 0.00 0.00 0.00 65 1029.6
20211204072046 36 0 0.0 1.0 0.00 0.00 0.00 65 1029.8
20211204071707 36 0 0.0 1.0 0.00 0.00 0.00 65 1029.8
20211204071054 36 0 0.0 0.0 0.00 0.00 0.00 63 1029.9
20211204070545 36 0 0.0 0.0 0.00 0.00 0.00 62 1030.0
20211204070255 36 0 0.0 0.0 0.00 0.00 0.00 62 1030.1
20211204065548 36 0 0.0 0.0 0.00 0.00 0.00 62 1030.1
20211204065115 37 0 0.0 0.0 0.00 0.00 0.00 61 1030.2
20211204064627 37 0 0.0 0.0 0.00 0.00 0.00 62 1030.1
20211204064046 36 0 0.0 1.0 0.00 0.00 0.00 63 1030.2
20211204063544 36 0 0.0 1.0 0.00 0.00 0.00 64 1030.2
20211204063107 36 0 0.0 0.0 0.00 0.00 0.00 64 1030.2
20211204062602 37 0 0.0 1.0 0.00 0.00 0.00 64 1030.3
20211204062050 37 0 0.0 2.0 0.00 0.00 0.00 64 1030.3
20211204061634 37 0 0.0 2.0 0.00 0.00 0.00 64 1030.3
20211204061044 37 324 0.0 2.0 0.00 0.00 0.00 65 1030.4
20211204060558 37 0 0.0 3.0 0.00 0.00 0.00 67 1030.4
20211204060109 36 324 1.0 3.0 0.00 0.00 0.00 68 1030.2
20211204055544 36 0 1.0 2.0 0.00 0.00 0.00 70 1030.4
20211204055044 36 0 0.0 2.0 0.00 0.00 0.00 70 1030.4
20211204054601 36 322 0.0 1.0 0.00 0.00 0.00 66 1030.4
20211204054045 37 0 0.0 0.0 0.00 0.00 0.00 66 1030.2
20211204053546 37 0 0.0 1.0 0.00 0.00 0.00 65 1030.2
20211204053241 37 0 0.0 1.0 0.00 0.00 0.00 65 1030.2
20211204052544 37 0 0.0 1.0 0.00 0.00 0.00 65 1030.2
20211204052052 37 0 0.0 1.0 0.00 0.00 0.00 64 1030.2
20211204051726 37 0 0.0 0.0 0.00 0.00 0.00 65 1030.2
20211204051100 37 0 0.0 0.0 0.00 0.00 0.00 64 1030.2
20211204050547 38 0 0.0 0.0 0.00 0.00 0.00 63 1030.2
20211204050243 38 0 0.0 1.0 0.00 0.00 0.00 63 1030.1
20211204045555 38 0 0.0 2.0 0.00 0.00 0.00 63 1030.1
20211204045048 38 0 0.0 2.0 0.00 0.00 0.00 63 1030.1
20211204044608 38 322 0.0 1.0 0.00 0.00 0.00 62 1030.2
20211204044138 38 0 0.0 1.0 0.00 0.00 0.00 64 1030.3
20211204043546 39 0 0.0 2.0 0.00 0.00 0.00 63 1030.3
20211204043154 39 0 0.0 2.0 0.00 0.00 0.00 63 1030.3
20211204042545 39 322 0.0 2.0 0.00 0.00 0.00 63 1030.3
20211204042053 39 0 0.0 2.0 0.00 0.00 0.00 63 1030.3
20211204041638 40 0 0.0 1.0 0.00 0.00 0.00 61 1030.3
20211204041046 40 0 0.0 1.0 0.00 0.00 0.00 61 1030.4
20211204040547 40 0 0.0 1.0 0.00 0.00 0.00 62 1030.3
20211204040112 40 322 0.0 2.0 0.00 0.00 0.00 63 1030.5
20211204035544 40 0 0.0 5.0 0.00 0.00 0.00 62 1030.4
20211204035050 40 322 1.0 5.0 0.00 0.00 0.00 62 1030.4
20211204034747 40 0 0.0 2.0 0.00 0.00 0.00 63 1030.4
20211204034044 40 317 0.0 2.0 0.00 0.00 0.00 63 1030.4
20211204033546 40 0 0.0 2.0 0.00 0.00 0.00 63 1030.5
20211204033122 39 0 0.0 2.0 0.00 0.00 0.00 64 1030.4
20211204032545 39 0 0.0 0.0 0.00 0.00 0.00 65 1030.4
20211204032046 39 0 0.0 1.0 0.00 0.00 0.00 64 1030.6
20211204031738 39 0 0.0 1.0 0.00 0.00 0.00 64 1030.3
20211204031051 39 0 0.0 1.0 0.00 0.00 0.00 64 1030.4
20211204030548 39 0 0.0 1.0 0.00 0.00 0.00 64 1030.5
20211204030120 40 0 0.0 2.0 0.00 0.00 0.00 64 1030.4
20211204025546 40 0 0.0 3.0 0.00 0.00 0.00 64 1030.4
20211204025109 40 0 0.0 3.0 0.00 0.00 0.00 64 1030.4
20211204024708 40 0 0.0 2.0 0.00 0.00 0.00 64 1030.4
20211204024044 40 0 0.0 2.0 0.00 0.00 0.00 64 1030.3
20211204023553 41 308 0.0 1.0 0.00 0.00 0.00 63 1030.4
20211204023229 41 360 0.0 2.0 0.00 0.00 0.00 63 1030.5
20211204022546 41 0 0.0 2.0 0.00 0.00 0.00 64 1030.4
20211204022045 41 0 0.0 1.0 0.00 0.00 0.00 64 1030.5
20211204021643 41 0 0.0 1.0 0.00 0.00 0.00 63 1030.4
20211204021046 41 0 0.0 1.0 0.00 0.00 0.00 62 1030.4
20211204020550 42 0 0.0 1.0 0.00 0.00 0.00 61 1030.4
20211204020203 42 0 0.0 1.0 0.00 0.00 0.00 60 1030.5
20211204015607 42 0 0.0 1.0 0.00 0.00 0.00 60 1030.4
20211204015105 43 0 0.0 1.0 0.00 0.00 0.00 59 1030.5
20211204014626 43 0 0.0 1.0 0.00 0.00 0.00 59 1030.4
20211204014043 43 0 0.0 1.0 0.00 0.00 0.00 58 1030.3
20211204013545 44 0 0.0 1.0 0.00 0.00 0.00 58 1030.3
20211204013129 44 360 0.0 2.0 0.00 0.00 0.00 57 1030.4
20211204012544 44 0 0.0 2.0 0.00 0.00 0.00 57 1030.4
20211204012046 44 0 0.0 2.0 0.00 0.00 0.00 57 1030.4
20211204011600 45 0 0.0 2.0 0.00 0.00 0.00 56 1030.3
20211204011047 45 0 0.0 3.0 0.00 0.00 0.00 54 1030.2
20211204010544 46 0 1.0 3.0 0.00 0.00 0.00 53 1030.2
20211204010141 45 360 0.0 3.0 0.00 0.00 0.00 53 1030.1
20211204005544 46 0 0.0 3.0 0.00 0.00 0.00 53 1030.1
20211204005053 46 0 0.0 3.0 0.00 0.00 0.00 52 1030.1
20211204004627 46 0 0.0 3.0 0.00 0.00 0.00 52 1029.9
20211204004046 46 0 0.0 2.0 0.00 0.00 0.00 52 1029.8
20211204003544 47 0 0.0 2.0 0.00 0.00 0.00 52 1029.7
20211204003100 47 0 0.0 3.0 0.00 0.00 0.00 51 1029.5
20211204002545 47 0 0.0 3.0 0.00 0.00 0.00 51 1029.5
20211204002044 48 0 0.0 3.0 0.00 0.00 0.00 50 1029.3
20211204001638 48 0 0.0 1.0 0.00 0.00 0.00 49 1029.2
20211204001045 48 0 0.0 2.0 0.00 0.00 0.00 49 1029.3
20211204000543 49 360 0.0 2.0 0.00 0.00 0.00 48 1029.2
20211204000114 49 0 0.0 2.0 0.00 0.00 0.00 47 1029.1
20211203235558 50 0 0.0 3.0 0.00 0.00 0.00 47 1029.1
20211203235045 50 0 0.0 3.0 0.00 0.00 0.00 46 1028.9
20211203234635 50 360 0.0 2.0 0.00 0.00 0.00 45 1028.9
20211203234044 51 0 0.0 2.0 0.00 0.00 0.00 44 1028.9
20211203233556 51 0 0.0 2.0 0.00 0.00 0.00 44 1028.7
20211203233116 52 0 0.0 3.0 0.00 0.00 0.00 43 1028.7
20211203232548 52 360 1.0 4.0 0.00 0.00 0.00 43 1028.5
20211203232058 53 0 0.0 4.0 0.00 0.00 0.00 42 1028.6
20211203231640 53 360 0.0 4.0 0.00 0.00 0.00 41 1028.4
20211203231054 54 360 0.0 5.0 0.00 0.00 0.00 40 1028.4
20211203230550 54 9 0.0 5.0 0.00 0.00 0.00 39 1028.3
20211203230137 55 348 0.0 4.0 0.00 0.00 0.00 39 1028.2
20211203225546 55 136 0.0 3.0 0.00 0.00 0.00 38 1028.4
20211203225045 55 0 0.0 3.0 0.00 0.00 0.00 38 1028.2
20211203224600 56 0 0.0 3.0 0.00 0.00 0.00 36 1028.2
20211203224048 57 248 1.0 3.0 0.00 0.00 0.00 35 1028.1
20211203223611 57 344 0.0 3.0 0.00 0.00 0.00 34 1028.1
20211203223154 58 351 1.0 4.0 0.00 0.00 0.00 34 1028.1
20211203222544 58 289 1.0 4.0 0.00 0.00 0.00 34 1028.0
20211203222055 58 0 0.0 4.0 0.00 0.00 0.00 34 1028.1
20211203221632 58 0 0.0 5.0 0.00 0.00 0.00 34 1028.0
20211203221045 58 47 1.0 5.0 0.00 0.00 0.00 34 1028.1
20211203220622 58 309 0.0 5.0 0.00 0.00 0.00 34 1027.9
20211203220119 59 0 1.0 5.0 0.00 0.00 0.00 33 1028.0
20211203215555 59 0 1.0 4.0 0.00 0.00 0.00 32 1027.9
20211203215051 59 0 0.0 4.0 0.00 0.00 0.00 32 1027.9
20211203214558 59 40 1.0 4.0 0.00 0.00 0.00 32 1027.8
20211203214045 59 34 0.0 5.0 0.00 0.00 0.00 32 1027.7
20211203213551 59 65 0.0 5.0 0.00 0.00 0.00 31 1027.8
20211203213148 59 53 1.0 6.0 0.00 0.00 0.00 32 1027.7
20211203212548 59 61 0.0 6.0 0.00 0.00 0.00 31 1027.7
20211203212042 59 87 1.0 4.0 0.00 0.00 0.00 31 1027.7
20211203211623 59 168 0.0 3.0 0.00 0.00 0.00 32 1027.8
20211203211043 59 0 0.0 3.0 0.00 0.00 0.00 32 1027.7
20211203210544 58 0 0.0 4.0 0.00 0.00 0.00 32 1027.6
20211203210059 59 108 1.0 4.0 0.00 0.00 0.00 31 1027.7
20211203205544 59 98 2.0 4.0 0.00 0.00 0.00 31 1027.7
20211203205052 59 59 0.0 4.0 0.00 0.00 0.00 31 1027.7
20211203204621 59 156 1.0 4.0 0.00 0.00 0.00 30 1027.7
20211203204045 59 126 1.0 4.0 0.00 0.00 0.00 31 1027.7
20211203203546 59 140 1.0 4.0 0.00 0.00 0.00 30 1027.8
20211203203110 58 147 1.0 5.0 0.00 0.00 0.00 31 1027.7
20211203202543 58 152 2.0 8.0 0.00 0.00 0.00 32 1027.9
20211203202051 58 137 4.0 8.0 0.00 0.00 0.00 32 1027.6
20211203201548 59 116 1.0 6.0 0.00 0.00 0.00 32 1027.8
20211203201055 58 0 2.0 7.0 0.00 0.00 0.00 33 1027.9
20211203200604 58 90 3.0 7.0 0.00 0.00 0.00 33 1028.0
20211203200132 58 141 1.0 5.0 0.00 0.00 0.00 33 1027.9
20211203195550 58 147 2.0 9.0 0.00 0.00 0.00 34 1028.1
20211203195044 58 0 2.0 9.0 0.00 0.00 0.00 34 1028.1
20211203194706 58 88 1.0 6.0 0.00 0.00 0.00 35 1028.2
20211203194043 57 136 1.0 5.0 0.00 0.00 0.00 35 1028.2
20211203193543 57 138 1.0 4.0 0.00 0.00 0.00 35 1028.3
20211203193201 57 120 1.0 6.0 0.00 0.00 0.00 35 1028.3
20211203192612 57 146 2.0 6.0 0.00 0.00 0.00 35 1028.4
20211203192044 57 91 1.0 7.0 0.00 0.00 0.00 36 1028.4
20211203191616 56 131 1.0 9.0 0.00 0.00 0.00 38 1028.6
20211203191043 56 96 1.0 9.0 0.00 0.00 0.00 38 1028.6
20211203190559 56 119 2.0 9.0 0.00 0.00 0.00 38 1028.6
20211203190106 55 105 2.0 7.0 0.00 0.00 0.00 38 1028.8
20211203185546 55 140 2.0 5.0 0.00 0.00 0.00 40 1028.9
20211203185042 55 121 1.0 10.0 0.00 0.00 0.00 40 1029.0
20211203184720 54 157 2.0 10.0 0.00 0.00 0.00 41 1029.2
20211203184043 54 103 2.0 8.0 0.00 0.00 0.00 41 1029.3
20211203183549 54 98 1.0 7.0 0.00 0.00 0.00 41 1029.4
20211203183047 54 84 1.0 4.0 0.00 0.00 0.00 41 1029.6
20211203182543 53 78 1.0 6.0 0.00 0.00 0.00 42 1029.8
20211203182043 53 0 1.0 8.0 0.00 0.00 0.00 42 1029.9
20211203181657 53 121 1.0 8.0 0.00 0.00 0.00 43 1030.0
20211203181045 52 86 2.0 7.0 0.00 0.00 0.00 42 1030.2
20211203180545 52 100 1.0 7.0 0.00 0.00 0.00 43 1030.2
20211203180310 51 103 0.0 7.0 0.00 0.00 0.00 46 1030.4
20211203175611 51 107 1.0 7.0 0.00 0.00 0.00 45 1030.5
20211203175044 51 86 1.0 5.0 0.00 0.00 0.00 46 1030.6
20211203174647 50 190 0.0 5.0 0.00 0.00 0.00 46 1030.8
20211203174106 50 0 0.0 5.0 0.00 0.00 0.00 46 1030.9
20211203173542 49 84 1.0 4.0 0.00 0.00 0.00 47 1031.0
20211203173112 49 0 0.0 3.0 0.00 0.00 0.00 48 1031.2
20211203172545 48 0 1.0 3.0 0.00 0.00 0.00 49 1031.5
20211203172105 49 0 0.0 3.0 0.00 0.00 0.00 49 1031.5
20211203171808 48 360 0.0 3.0 0.00 0.00 0.00 51 1031.6
20211203171056 47 360 1.0 7.0 0.00 0.00 0.00 52 1031.8
20211203170545 47 0 1.0 7.0 0.00 0.00 0.00 53 1032.0
20211203170051 46 0 0.0 4.0 0.00 0.00 0.00 52 1032.1
20211203165621 46 107 1.0 4.0 0.00 0.00 0.00 53 1032.1
20211203165042 46 0 1.0 3.0 0.00 0.00 0.00 53 1032.3
20211203164605 46 0 0.0 1.0 0.00 0.00 0.00 54 1032.3
20211203164043 45 0 0.0 2.0 0.00 0.00 0.00 55 1032.5
20211203163548 45 0 0.0 3.0 0.00 0.00 0.00 57 1032.5
20211203163158 44 0 0.0 3.0 0.00 0.00 0.00 57 1032.5
20211203162544 44 324 0.0 2.0 0.00 0.00 0.00 58 1032.6
20211203162047 44 0 0.0 2.0 0.00 0.00 0.00 58 1032.6
20211203161710 44 0 0.0 2.0 0.00 0.00 0.00 59 1032.6
20211203161042 43 0 0.0 2.0 0.00 0.00 0.00 59 1032.6
20211203160542 42 360 0.0 3.0 0.00 0.00 0.00 60 1032.9
20211203160122 43 0 0.0 3.0 0.00 0.00 0.00 60 1032.9
20211203155547 42 360 0.0 2.0 0.00 0.00 0.00 61 1032.8
20211203155059 41 0 0.0 3.0 0.00 0.00 0.00 62 1032.9
20211203154622 41 0 0.0 3.0 0.00 0.00 0.00 61 1033.1
20211203154045 41 360 0.0 3.0 0.00 0.00 0.00 62 1033.0
20211203153545 41 0 0.0 2.0 0.00 0.00 0.00 62 1033.0
20211203153306 41 0 0.0 2.0 0.00 0.00 0.00 62 1033.0
20211203152546 40 0 0.0 2.0 0.00 0.00 0.00 62 1033.1
20211203152044 40 0 0.0 1.0 0.00 0.00 0.00 62 1033.0
20211203151636 40 0 0.0 1.0 0.00 0.00 0.00 62 1033.0
20211203151043 39 0 0.0 2.0 0.00 0.00 0.00 62 1033.0
20211203150545 39 0 0.0 2.0 0.00 0.00 0.00 62 1033.1
20211203150109 38 0 0.0 2.0 0.00 0.00 0.00 62 1033.0
20211203145542 38 0 0.0 1.0 0.00 0.00 0.00 63 1032.9
20211203145046 37 0 0.0 1.0 0.00 0.00 0.00 62 1033.0
20211203144615 37 0 0.0 1.0 0.00 0.00 0.00 61 1033.0
20211203144044 37 0 0.0 2.0 0.00 0.00 0.00 61 1033.1
20211203143542 37 44 0.0 2.0 0.00 0.00 0.00 61 1033.0
20211203143219 37 44 0.0 2.0 0.00 0.00 0.00 60 1033.1
20211203142548 37 44 0.0 1.0 0.00 0.00 0.00 60 1033.1
20211203142045 37 0 0.0 1.0 0.00 0.00 0.00 59 1033.0
20211203141731 37 0 0.0 2.0 0.00 0.00 0.00 58 1032.9
20211203141047 37 0 0.0 2.0 0.00 0.00 0.00 58 1033.0
20211203140624 38 0 0.0 2.0 0.00 0.00 0.00 57 1033.0
20211203140224 38 0 0.0 2.0 0.00 0.00 0.00 56 1032.8
20211203135548 38 58 0.0 3.0 0.00 0.00 0.00 56 1032.8
20211203135052 38 0 0.0 3.0 0.00 0.00 0.00 54 1032.6
20211203134733 38 60 1.0 3.0 0.00 0.00 0.00 54 1032.6
20211203134044 38 0 0.0 1.0 0.00 0.00 0.00 52 1032.7
20211203133557 38 0 0.0 1.0 0.00 0.00 0.00 51 1032.6
20211203133058 38 0 0.0 1.0 0.00 0.00 0.00 51 1032.5
20211203132600 38 0 0.0 1.0 0.00 0.00 0.00 50 1032.4
20211203132059 38 0 0.0 1.0 0.00 0.00 0.00 48 1032.4
20211203131646 39 0 0.0 1.0 0.00 0.00 0.00 48 1032.3
20211203131047 39 0 0.0 2.0 0.00 0.00 0.00 47 1032.2
20211203130555 39 0 0.0 3.0 0.00 0.00 0.00 46 1032.0
20211203130217 39 0 0.0 4.0 0.00 0.00 0.00 46 1032.0
20211203125546 40 309 0.0 4.0 0.00 0.00 0.00 46 1031.7
20211203125046 39 0 0.0 2.0 0.00 0.00 0.00 47 1031.4
20211203124613 39 0 0.0 3.0 0.00 0.00 0.00 48 1031.3
20211203124046 40 0 1.0 3.0 0.00 0.00 0.00 48 1030.7
20211203123546 40 298 0.0 4.0 0.00 0.00 0.00 48 1030.7
20211203123325 40 298 2.0 4.0 0.00 0.00 0.00 48 1030.5
20211203122545 40 360 1.0 3.0 0.00 0.00 0.00 47 1030.1
20211203122048 40 360 1.0 3.0 0.00 0.00 0.00 45 1030.0
20211203121626 41 13 0.0 4.0 0.00 0.00 0.00 43 1029.9
20211203121044 42 44 0.0 7.0 0.00 0.00 0.00 42 1029.6
20211203120545 43 51 2.0 11.0 0.00 0.00 0.00 41 1029.2
20211203120217 45 69 3.0 11.0 0.00 0.00 0.00 39 1029.1
20211203115547 45 65 1.0 6.0 0.00 0.00 0.00 38 1028.6
20211203115044 45 50 1.0 3.0 0.00 0.00 0.00 40 1028.2
20211203114701 46 326 0.0 3.0 0.00 0.00 0.00 39 1027.8
20211203114049 46 0 0.0 2.0 0.00 0.00 0.00 38 1027.7
20211203113545 47 0 0.0 3.0 0.00 0.00 0.00 37 1027.5
20211203113147 47 0 0.0 3.0 0.00 0.00 0.00 37 1027.4